Terug naar catalogus

STARLINK-37164

ActiefCommunicatieVLEO
NORAD 68324·PAYLOAD·🇺🇸 United States

Gelanceerd Mar 22, 2026 vanaf Cape Canaveral Space Force Station

Loading…

Volgende Passages (komende 24 uur)

TLE

VersSource: CelesTrak SupGP

Epoch: Sep 15, 2026, 03:17 UTC

1 68324C 26059D   26258.13729167 -.00072832  00000+0 -21524-2 0  2581
2 68324  53.1585 186.5712 0001642  82.4977 338.8632 15.34417588    12

Volg STARLINK-37164 in realtime met AllMySat

Download on the App Store